Pagosa Springs, CO

6:20 AM MST on January 22, 2018 (GMT -0700)
Pagosa Springs

Weather History for KPSO - April, 2014

Change the Weather History Date:

Friday, April 25, 2014

  Actual Average (KE33) Record (KE33)
Temperature  
Mean Temperature 44 °F -  
Max Temperature 64 °F 54 °F 69 °F (2012)
Min Temperature 25 °F 33 °F 21 °F (2008)
Degree Days  
Heating Degree Days 20    
Moisture  
Dew Point 5 °F    
Average Humidity 21    
Maximum Humidity 46    
Minimum Humidity 7    
Precipitation  
Precipitation 0.00 in - - ()
Sea Level Pressure  
Sea Level Pressure 30.02 in    
Wind  
Wind Speed 4 mph (SW)    
Max Wind Speed 17 mph    
Max Gust Speed 24 mph    
Visibility 10 miles    
Events Thunderstorm    
Averages and records for this station are not official NWS values.
T = Trace of Precipitation, MM = Missing Value Source: NWS Daily Summary

Daily Weather History Graph

Daily Weather History Graph

Search for Another Location

Airport or City:

Trip Planner

Search our weather history database for the weather conditions in past years. The results will help you decide how hot, cold, wet, or windy it might be!

Date:

Astronomy

Apr. 25, 2014 Rise Set
Actual Time 6:20 AM MDT 7:52 PM MDT
Civil Twilight 5:52 AM MDT 8:20 PM MDT
Nautical Twilight 5:19 AM MDT 8:53 PM MDT
Astronomical Twilight 4:44 AM MDT 9:28 PM MDT
Moon 4:05 AM MDT (4/25) 4:22 PM MDT (4/25)
Length of Visible Light 14h 27m
Length of Day
13h 31m
Waning Crescent, 15% of the Moon is Illuminated
Apr 25
Waning Crescent
Apr 29
New
May 6
First Quarter
May 14
Full
May 21
Last Quarter

Hourly Weather History & Observations

Time (MDT) Temp. Windchill Dew Point Humidity Pressure Visibility Wind Dir Wind Speed Gust Speed Precip Events Conditions
12:15 AM 34.0 °F - 2.5 °F 26% 30.13 in 10.0 mi Calm Calm - N/A   Clear
12:35 AM 33.1 °F - 1.8 °F 27% 30.12 in 10.0 mi Calm Calm - N/A   Clear
12:55 AM 34.0 °F - 3.2 °F 27% 30.12 in 10.0 mi Calm Calm - N/A   Clear
1:15 AM 33.1 °F - 3.6 °F 29% 30.12 in 10.0 mi Calm Calm - N/A   Clear
1:35 AM 29.8 °F - 3.0 °F 32% 30.11 in 10.0 mi Calm Calm - N/A   Clear
1:55 AM 28.8 °F - 3.7 °F 34% 30.11 in 10.0 mi Calm Calm - N/A   Clear
2:15 AM 30.6 °F - 1.0 °F 28% 30.10 in 10.0 mi Calm Calm - N/A   Clear
2:35 AM 29.7 °F - 6.4 °F 38% 30.10 in 10.0 mi Calm Calm - N/A   Clear
2:55 AM 30.6 °F - 7.0 °F 37% 30.09 in 10.0 mi Calm Calm - N/A   Clear
3:15 AM 29.7 °F - 5.5 °F 36% 30.09 in 10.0 mi Calm Calm - N/A   Clear
3:35 AM 26.6 °F - 7.7 °F 45% 30.09 in 10.0 mi Calm Calm - N/A   Clear
3:55 AM 28.2 °F - 3.9 °F 36% 30.09 in 10.0 mi Calm Calm - N/A   Clear
4:15 AM 27.9 °F - 5.2 °F 38% 30.09 in 10.0 mi Calm Calm - N/A   Clear
4:35 AM 29.5 °F - 7.7 °F 40% 30.10 in 10.0 mi Calm Calm - N/A   Clear
4:55 AM 27.3 °F - 7.7 °F 44% 30.10 in 10.0 mi Calm Calm - N/A   Clear
5:15 AM 25.9 °F 19.2 °F 7.3 °F 46% 30.10 in 10.0 mi NNE 5.8 mph - N/A   Clear
5:55 AM 27.5 °F - 4.1 °F 37% 30.10 in 10.0 mi Calm Calm - N/A   Clear
6:15 AM 28.4 °F - 6.6 °F 40% 30.10 in 10.0 mi Calm Calm - N/A Thunderstorm Thunderstorm
6:35 AM 26.6 °F - 7.2 °F 44% 30.10 in 10.0 mi Calm Calm - N/A   Clear
6:55 AM 27.5 °F - 8.2 °F 44% 30.10 in 10.0 mi Calm Calm - N/A   Clear
7:15 AM 30.7 °F - 6.4 °F 36% 30.10 in 10.0 mi Calm Calm - N/A   Clear
7:35 AM 33.1 °F - 9.3 °F 37% 30.10 in 10.0 mi Calm Calm - N/A   Clear
7:55 AM 35.2 °F - 7.0 °F 31% 30.10 in 10.0 mi Calm Calm - N/A   Clear
8:15 AM 37.6 °F - 5.4 °F 26% 30.09 in 10.0 mi Calm Calm - N/A   Clear
8:35 AM 41.7 °F - 10.0 °F 27% 30.09 in 10.0 mi Calm Calm - N/A   Clear
8:55 AM 44.2 °F - 9.7 °F 24% 30.10 in 10.0 mi Calm Calm - N/A   Clear
9:15 AM 45.9 °F 44.6 °F 11.3 °F 25% 30.10 in 10.0 mi South 3.5 mph - N/A   Clear
9:35 AM 48.6 °F - 2.8 °F 15% 30.10 in 10.0 mi Calm Calm - N/A   Clear
9:55 AM 50.2 °F - 3.7 °F 15% 30.10 in 10.0 mi SSE 5.8 mph - N/A   Clear
10:15 AM 50.9 °F - 4.5 °F 15% 30.10 in 10.0 mi South 6.9 mph - N/A   Clear
10:35 AM 51.8 °F - 4.1 °F 14% 30.10 in 10.0 mi SSE 8.1 mph - N/A   Clear
10:55 AM 53.2 °F - 3.9 °F 14% 30.09 in 10.0 mi SW 9.2 mph - N/A   Clear
11:15 AM 54.7 °F - 4.5 °F 13% 30.09 in 10.0 mi South 9.2 mph 20.7 mph N/A   Clear
11:35 AM 55.0 °F - 2.8 °F 12% 30.09 in 10.0 mi SW 5.8 mph 16.1 mph N/A   Clear
11:55 AM 56.1 °F - 3.7 °F 12% 30.07 in 10.0 mi SSW 10.4 mph 16.1 mph N/A   Clear
12:15 PM 56.8 °F - 4.1 °F 12% 30.06 in 10.0 mi WSW 6.9 mph - N/A   Clear
12:35 PM 57.4 °F - 3.7 °F 12% 30.05 in 10.0 mi WSW 11.5 mph - N/A   Clear
12:55 PM 58.6 °F - 1.2 °F 10% 30.04 in 10.0 mi WSW 10.4 mph 20.7 mph N/A   Clear
1:15 PM 59.5 °F - 0.5 °F 9% 30.03 in 10.0 mi SSW 15.0 mph 20.7 mph N/A   Clear
1:35 PM 59.9 °F - -0.9 °F 9% 30.02 in 10.0 mi SSW 10.4 mph 16.1 mph N/A   Clear
1:55 PM 61.2 °F - -1.7 °F 8% 30.01 in 10.0 mi WSW 17.3 mph 21.9 mph N/A   Clear
2:15 PM 61.5 °F - -0.0 °F 8% 30.01 in 10.0 mi SSW 10.4 mph 19.6 mph N/A   Clear
2:35 PM 63.5 °F - 1.9 °F 9% 30.01 in 10.0 mi West 9.2 mph 24.2 mph N/A   Clear
2:55 PM 63.3 °F - -3.6 °F 7% 30.00 in 10.0 mi SSW 12.7 mph 23.0 mph N/A   Clear
3:15 PM 63.1 °F - -3.1 °F 7% 29.99 in 10.0 mi WSW 15.0 mph 23.0 mph N/A   Clear
3:35 PM 63.0 °F - -2.6 °F 7% 29.99 in 10.0 mi SSW 12.7 mph 20.7 mph N/A   Clear
3:55 PM 63.7 °F - -2.6 °F 7% 29.97 in 10.0 mi WSW 17.3 mph - N/A   Clear
4:15 PM 64.0 °F - 0.5 °F 8% 29.96 in 10.0 mi West 16.1 mph 21.9 mph N/A   Clear
4:35 PM 63.1 °F - 1.9 °F 9% 29.95 in 10.0 mi SSW 9.2 mph 21.9 mph N/A   Clear
4:55 PM 63.7 °F - 4.8 °F 10% 29.95 in 10.0 mi SW 13.8 mph 23.0 mph N/A   Clear
5:15 PM 63.9 °F - 5.5 °F 10% 29.94 in 10.0 mi SW 15.0 mph 20.7 mph N/A   Clear
5:35 PM 64.0 °F - 5.7 °F 10% 29.93 in 10.0 mi WSW 11.5 mph 21.9 mph N/A   Clear
5:55 PM 63.5 °F - 6.1 °F 10% 29.92 in 10.0 mi SSW 15.0 mph 20.7 mph N/A   Scattered Clouds
6:15 PM 63.0 °F - 6.4 °F 11% 29.92 in 10.0 mi WSW 10.4 mph 16.1 mph N/A   Clear
6:35 PM 62.6 °F - 5.4 °F 10% 29.91 in 10.0 mi SW 13.8 mph 18.4 mph N/A   Clear
6:55 PM 62.2 °F - 3.9 °F 10% 29.91 in 10.0 mi SW 10.4 mph - N/A   Scattered Clouds
7:15 PM 61.7 °F - 3.9 °F 10% 29.90 in 10.0 mi SSW 12.7 mph - N/A   Scattered Clouds
7:35 PM 61.2 °F - 5.0 °F 11% 29.90 in 10.0 mi SSW 8.1 mph - N/A   Scattered Clouds
7:55 PM 59.9 °F - 4.5 °F 11% 29.90 in 10.0 mi South 4.6 mph - N/A   Scattered Clouds
8:15 PM 59.0 °F - 4.5 °F 11% 29.90 in 10.0 mi South 3.5 mph - N/A   Scattered Clouds
8:35 PM 58.3 °F - 5.0 °F 12% 29.90 in 10.0 mi South 5.8 mph - N/A   Scattered Clouds
8:55 PM 58.3 °F - 7.2 °F 13% 29.90 in 10.0 mi South 8.1 mph - N/A   Scattered Clouds
9:15 PM 58.8 °F - 8.4 °F 14% 29.91 in 10.0 mi SSW 9.2 mph 17.3 mph N/A   Scattered Clouds
9:35 PM 59.0 °F - 8.8 °F 14% 29.91 in 10.0 mi SW 9.2 mph 17.3 mph N/A   Scattered Clouds
9:55 PM 59.0 °F - 9.5 °F 14% 29.91 in 10.0 mi SSW 10.4 mph 17.3 mph N/A   Clear
10:15 PM 59.0 °F - 10.2 °F 15% 29.91 in 10.0 mi SW 10.4 mph - N/A   Scattered Clouds
10:35 PM 57.9 °F - 10.8 °F 15% 29.91 in 10.0 mi SW 5.8 mph - N/A   Scattered Clouds
11:15 PM 47.8 °F - 14.7 °F 27% 29.91 in 10.0 mi Calm Calm - N/A   Clear
11:35 PM 45.5 °F - 15.8 °F 30% 29.91 in 10.0 mi Calm Calm - N/A   Clear
11:55 PM 45.9 °F - 14.5 °F 28% 29.90 in 10.0 mi Calm Calm - N/A   Clear